timestamp,surface_pressure_avg,surface_temp_avg,battery_voltage,lat,long
2019-06-07 00:00:00+00:00,315.3297,7.7,12.89,47.84626,-54.09684
2019-06-07 00:10:00+00:00,320.678,7.87,12.81,47.84626,-54.09684
2019-06-07 00:20:00+00:00,334.4147,7.6,12.89,47.84626,-54.09684
2019-06-07 00:30:00+00:00,344.658,7.5,12.89,47.84626,-54.09684
2019-06-07 00:40:00+00:00,345.3929,7.6,12.97,47.84626,-54.09684
2019-06-07 00:50:00+00:00,353.1863,7.7,12.97,47.84626,-54.09684
2019-06-07 01:00:00+00:00,358.6763,7.6,12.89,47.84626,-54.09684
2019-06-07 01:10:00+00:00,358.7246,7.66,12.81,47.84626,-54.09684
2019-06-07 01:20:00+00:00,359.8362,7.7,12.89,47.84626,-54.09684
2019-06-07 01:30:00+00:00,362.6879,7.7,12.89,47.84626,-54.09684
2019-06-07 01:40:00+00:00,366.1662,7.5,12.89,47.84626,-54.09684
2019-06-07 01:50:00+00:00,370.8079,7.4,12.89,47.84626,-54.09684
2019-06-07 02:00:00+00:00,373.0579,7.4,12.81,47.84626,-54.09684
2019-06-07 02:10:00+00:00,370.9646,7.4,12.73,47.84626,-54.09684
2019-06-07 02:20:00+00:00,368.9929,7.4,12.81,47.84626,-54.09684
2019-06-07 02:30:00+00:00,371.4562,7.3,12.89,47.84626,-54.09684
2019-06-07 02:40:00+00:00,370.9729,7.1,12.89,47.84626,-54.09684
2019-06-07 02:50:00+00:00,366.063,7.16,12.89,47.84626,-54.09684
2019-06-07 03:00:00+00:00,363.7229,7.23,12.81,47.84626,-54.09684
2019-06-07 03:10:00+00:00,361.9763,7.3,12.73,47.84626,-54.09684
2019-06-07 03:20:00+00:00,356.1896,7.33,12.81,47.84626,-54.09684
2019-06-07 03:30:00+00:00,349.6346,7.32,12.81,47.84626,-54.09684
2019-06-07 03:40:00+00:00,348.153,7.31,12.89,47.84626,-54.09684
2019-06-07 03:50:00+00:00,351.8296,7.32,12.89,47.84626,-54.09684
2019-06-07 04:00:00+00:00,341.8813,7.49,12.81,47.84626,-54.09684
2019-06-07 04:10:00+00:00,329.8846,7.69,12.73,47.84626,-54.09684
2019-06-07 04:20:00+00:00,326.4229,7.74,12.81,47.84626,-54.09684
2019-06-07 04:30:00+00:00,328.5031,7.8,12.81,47.84626,-54.09684
2019-06-07 04:40:00+00:00,320.4747,7.9,12.81,47.84626,-54.09684
2019-06-07 04:50:00+00:00,313.028,8.0,12.81,47.84626,-54.09684
2019-06-07 05:00:00+00:00,307.9013,8.0,12.73,47.84626,-54.09684
2019-06-07 05:10:00+00:00,298.5847,8.02,12.73,47.84626,-54.09684
2019-06-07 05:20:00+00:00,284.4697,8.09,12.81,47.84626,-54.09684
2019-06-07 05:30:00+00:00,270.7614,8.1,12.81,47.84626,-54.09684
2019-06-07 05:40:00+00:00,263.2647,8.08,12.81,47.84626,-54.09684
2019-06-07 05:50:00+00:00,254.3181,8.08,12.81,47.84626,-54.09684
2019-06-07 06:00:00+00:00,240.3631,8.1,12.73,47.84626,-54.09684
2019-06-07 06:10:00+00:00,229.2948,8.1,12.65,47.84626,-54.09684
2019-06-07 06:20:00+00:00,217.3181,8.1,12.73,47.84626,-54.09684
2019-06-07 06:30:00+00:00,208.6598,8.1,12.81,47.84626,-54.09684
2019-06-07 06:40:00+00:00,206.7515,8.09,12.81,47.84626,-54.09684
2019-06-07 06:50:00+00:00,199.1548,8.04,12.81,47.84626,-54.09684
2019-06-07 07:00:00+00:00,184.0014,8.05,12.73,47.84626,-54.09684
2019-06-07 07:10:00+00:00,178.1498,8.0,12.65,47.84626,-54.09684
2019-06-07 07:20:00+00:00,181.6981,8.0,12.73,47.84626,-54.09684
2019-06-07 07:30:00+00:00,179.5398,8.0,12.73,47.84626,-54.09684
2019-06-07 07:40:00+00:00,174.8098,8.0,12.81,47.84626,-54.09684
2019-06-07 07:50:00+00:00,178.1348,7.98,12.81,47.84626,-54.09684
2019-06-07 08:00:00+00:00,185.9215,7.9,12.73,47.84626,-54.09684
2019-06-07 08:10:00+00:00,188.1665,7.9,12.65,47.84626,-54.09684
2019-06-07 08:20:00+00:00,189.8965,7.9,12.73,47.84626,-54.09684
2019-06-07 08:30:00+00:00,195.0797,7.9,12.73,47.84626,-54.09684
2019-06-07 08:40:00+00:00,195.8214,7.9,12.81,47.84626,-54.09684
2019-06-07 08:50:00+00:00,198.8448,7.9,12.81,47.84626,-54.09684
2019-06-07 09:00:00+00:00,204.3448,7.89,12.73,47.84626,-54.09684
2019-06-07 09:10:00+00:00,209.3714,7.89,12.65,47.84626,-54.09684
2019-06-07 09:20:00+00:00,208.4615,7.89,12.73,47.84626,-54.09684
2019-06-07 09:30:00+00:00,208.1581,7.9,12.73,47.84626,-54.09684
2019-06-07 09:40:00+00:00,208.0065,7.9,12.81,47.84626,-54.09684
2019-06-07 09:50:00+00:00,206.0648,7.9,12.81,47.84626,-54.09684
2019-06-07 10:00:00+00:00,208.6815,7.9,12.73,47.84626,-54.09684
2019-06-07 10:10:00+00:00,214.8748,7.9,12.65,47.84626,-54.09684
2019-06-07 10:20:00+00:00,213.5847,7.9,12.81,47.84626,-54.09684
2019-06-07 10:30:00+00:00,215.7831,7.9,12.81,47.84626,-54.09684
2019-06-07 10:40:00+00:00,223.2898,7.9,12.81,47.84626,-54.09684
2019-06-07 10:50:00+00:00,228.4948,7.97,12.89,47.84626,-54.09684
2019-06-07 11:00:00+00:00,230.5797,8.1,12.81,47.84626,-54.09684
2019-06-07 11:10:00+00:00,233.6481,8.29,12.73,47.84626,-54.09684
2019-06-07 11:20:00+00:00,239.8781,8.2,12.81,47.84626,-54.09684
2019-06-07 11:30:00+00:00,243.9881,8.36,12.89,47.84626,-54.09684
2019-06-07 11:40:00+00:00,251.3181,8.3,12.97,47.84626,-54.09684
2019-06-07 11:50:00+00:00,259.8697,8.0,12.97,47.84626,-54.09684
2019-06-07 12:00:00+00:00,264.6365,7.91,12.97,47.84626,-54.09684
2019-06-07 12:10:00+00:00,267.8881,8.21,12.97,47.84626,-54.09684
2019-06-07 12:20:00+00:00,278.3147,8.0,13.21,47.84626,-54.09684
2019-06-07 12:30:00+00:00,291.398,8.0,13.29,47.84626,-54.09684
2019-06-07 12:40:00+00:00,297.568,7.9,13.6,47.84626,-54.09684
2019-06-07 12:50:00+00:00,301.0697,7.98,13.76,47.84626,-54.09684
2019-06-07 13:00:00+00:00,309.0081,7.8,13.76,47.84626,-54.09684
2019-06-07 13:10:00+00:00,313.7964,8.0,13.84,47.84626,-54.09684
2019-06-07 13:20:00+00:00,315.8497,8.1,14.08,47.84626,-54.09684
2019-06-07 13:30:00+00:00,318.718,7.9,14.24,47.84626,-54.09684
2019-06-07 13:40:00+00:00,321.5597,7.9,14.32,47.84626,-54.09684
2019-06-07 13:50:00+00:00,325.5463,7.75,14.4,47.84626,-54.09684
2019-06-07 14:00:00+00:00,330.0047,7.7,14.32,47.84626,-54.09684
2019-06-07 14:10:00+00:00,331.3929,7.7,14.24,47.84626,-54.09684
2019-06-07 14:20:00+00:00,329.118,7.7,14.4,47.84626,-54.09684
2019-06-07 14:30:00+00:00,329.083,7.7,14.56,47.84626,-54.09684
2019-06-07 14:40:00+00:00,334.8796,7.7,14.48,47.84626,-54.09684
2019-06-07 14:50:00+00:00,333.108,7.7,14.48,47.84626,-54.09684
2019-06-07 15:00:00+00:00,329.848,7.7,14.32,47.84626,-54.09684
2019-06-07 15:10:00+00:00,330.4963,7.7,14.24,47.84626,-54.09684
2019-06-07 15:20:00+00:00,328.9913,7.7,14.4,47.84626,-54.09684
2019-06-07 15:30:00+00:00,323.1946,7.72,14.4,47.84626,-54.09684
2019-06-07 15:40:00+00:00,322.9114,7.7,14.48,47.84626,-54.09684
2019-06-07 15:50:00+00:00,323.3879,7.7,14.48,47.84626,-54.09684
2019-06-07 16:00:00+00:00,317.4964,7.74,14.32,47.84626,-54.09684
2019-06-07 16:10:00+00:00,310.8913,7.79,14.24,47.84626,-54.09684
2019-06-07 16:20:00+00:00,310.7247,7.79,14.4,47.84626,-54.09684
2019-06-07 16:30:00+00:00,307.9163,7.7,14.4,47.84626,-54.09684
2019-06-07 16:40:00+00:00,299.3914,7.7,14.4,47.84626,-54.09684
2019-06-07 16:50:00+00:00,293.9914,7.77,14.48,47.84626,-54.09684
2019-06-07 17:00:00+00:00,291.1281,7.74,14.4,47.84626,-54.09684
2019-06-07 17:10:00+00:00,283.938,7.72,14.32,47.84626,-54.09684
2019-06-07 17:20:00+00:00,271.6764,7.8,14.48,47.84626,-54.09684
2019-06-07 17:30:00+00:00,264.4314,7.87,14.48,47.84626,-54.09684
2019-06-07 17:40:00+00:00,257.5548,7.87,14.48,47.84626,-54.09684
2019-06-07 17:50:00+00:00,246.5714,7.9,14.4,47.84626,-54.09684
2019-06-07 18:00:00+00:00,236.7947,7.94,14.24,47.84626,-54.09684
2019-06-07 18:10:00+00:00,232.1348,8.0,14.16,47.84626,-54.09684
2019-06-07 18:20:00+00:00,223.2131,8.03,14.24,47.84626,-54.09684
2019-06-07 18:30:00+00:00,211.9631,8.24,14.24,47.84626,-54.09684
2019-06-07 18:40:00+00:00,203.9948,8.36,14.24,47.84626,-54.09684
2019-06-07 18:50:00+00:00,198.0631,8.4,14.24,47.84626,-54.09684
2019-06-07 19:00:00+00:00,190.7398,8.4,14.16,47.84626,-54.09684
2019-06-07 19:10:00+00:00,186.0615,8.4,14.08,47.84626,-54.09684
2019-06-07 19:20:00+00:00,181.2148,8.4,14.08,47.84626,-54.09684
2019-06-07 19:30:00+00:00,177.3848,8.4,14.08,47.84626,-54.09684
2019-06-07 19:40:00+00:00,176.6314,8.4,14.16,47.84626,-54.09684
2019-06-07 19:50:00+00:00,176.7881,8.4,14.16,47.84626,-54.09684
2019-06-07 20:00:00+00:00,177.8581,8.38,14.08,47.84626,-54.09684
2019-06-07 20:10:00+00:00,183.4748,8.3,14.0,47.84626,-54.09684
2019-06-07 20:20:00+00:00,186.5798,8.3,14.0,47.84626,-54.09684
2019-06-07 20:30:00+00:00,187.3698,8.3,14.0,47.84626,-54.09684
2019-06-07 20:40:00+00:00,191.1598,8.3,14.0,47.84626,-54.09684
2019-06-07 20:50:00+00:00,194.1815,8.3,14.0,47.84626,-54.09684
2019-06-07 21:00:00+00:00,198.5981,8.3,14.0,47.84626,-54.09684
2019-06-07 21:10:00+00:00,202.8348,8.28,13.84,47.84626,-54.09684
2019-06-07 21:20:00+00:00,204.7081,8.28,13.92,47.84626,-54.09684
2019-06-07 21:30:00+00:00,206.8215,8.29,13.92,47.84626,-54.09684
2019-06-07 21:40:00+00:00,211.0131,8.24,13.92,47.84626,-54.09684
2019-06-07 21:50:00+00:00,214.5215,8.2,13.92,47.84626,-54.09684
2019-06-07 22:00:00+00:00,218.0714,8.18,13.84,47.84626,-54.09684
2019-06-07 22:10:00+00:00,222.0997,8.1,13.68,47.84626,-54.09684
2019-06-07 22:20:00+00:00,224.4648,8.1,13.76,47.84626,-54.09684
2019-06-07 22:30:00+00:00,225.8314,8.18,13.68,47.84626,-54.09684
2019-06-07 22:40:00+00:00,230.8748,8.19,13.68,47.84626,-54.09684
2019-06-07 22:50:00+00:00,236.0414,8.15,13.68,47.84626,-54.09684
2019-06-07 23:00:00+00:00,236.6064,8.1,13.6,47.84626,-54.09684
2019-06-07 23:10:00+00:00,237.6948,8.07,13.44,47.84626,-54.09684
2019-06-07 23:20:00+00:00,245.9548,8.05,13.37,47.84626,-54.09684
2019-06-07 23:30:00+00:00,255.8381,8.02,13.37,47.84626,-54.09684
2019-06-07 23:40:00+00:00,260.6564,8.04,13.29,47.84626,-54.09684
2019-06-07 23:50:00+00:00,265.0047,8.03,13.29,47.84626,-54.09684
